Location: Nitra
(0.0000°N, 18.0833°E)
Time: 13:24:40
(UTC+02:00)

Daily predictions for brighter satellites

Satellite Brightness Start Highest point End
(mag) Time Altitude Azimuth Time Altitude Azimuth Time Altitude Azimuth
H-10 deb 3.7 18:52:13 10° WSW 18:56:23 78° S 19:24:40 10° E
H-10 deb 3.7 18:52:13 10° WSW 18:56:23 78° S 19:24:41 10° E
H-10 deb 3.7 18:52:13 10° WSW 18:56:24 78° S 19:24:40 10° E
H-10 deb 3.7 18:52:14 10° WSW 18:56:24 78° S 19:24:40 10° E
H-10 deb 3.7 18:52:13 10° WSW 18:56:24 78° SSE 19:24:41 10° E
H-10 deb 3.7 18:52:13 10° WSW 18:56:24 78° SSE 19:24:40 10° E
Ariane H10-3 3.3 19:01:03 10° NW 19:03:37 33° NNE 19:10:52 10° E
Okean O Rocket 1.7 18:59:30 10° SSE 19:03:54 63° ENE 19:08:18 10° N
Spelda 2.2 19:01:37 10° W 19:04:11 84° N 19:09:51 10° E
Sakura Rocket 3.1 19:01:55 10° SW 19:05:32 48° SSE 19:09:55 10° ENE
Cosmos 1689 Rocket 3.5 19:04:54 10° NE 19:06:52 18° ESE 19:08:51 10° SSE
Lacrosse 5 rocket 1.9 19:02:52 10° NNW 19:07:11 47° ENE 19:11:38 10° SE
Cosmos 1503 Rocket 4.3 19:03:47 10° S 19:08:38 42° ESE 19:13:28 10° NNE
CSL-04 DEB 4.3 19:05:47 10° NNE 19:09:45 81° ESE 19:13:41 10° S
YAOGAN 1 4.3 19:08:32 10° ESE 19:10:47 14° ENE 19:13:02 10° NE
CZ-4B R/B 2.5 19:08:12 10° N 19:11:06 44° WNW 19:14:00 10° SSW
H-2A R/B 2.9 19:07:31 10° SE 19:11:37 27° ENE 19:15:42 10° NNE
Cosmos 1939 Rocket 3.4 19:08:21 10° S 19:12:27 67° WSW 19:16:31 10° NNW
NOSS 3-3 (A) 4.1 19:07:59 10° SSW 19:13:23 68° WNW 19:18:49 10° NNE
NOSS 3-3 (C) 4.1 19:08:03 10° SSW 19:13:29 68° WNW 19:18:57 10° NNE
Okean-O 4.5 19:15:36 10° ESE 19:17:38 13° ENE 19:19:40 10° NE
Meteor 2-15 Rocket 4.5 19:12:27 10° S 19:18:26 61° E 19:24:23 10° NNE
Skynet4D Del rocket 3.5 19:13:34 10° SW 19:18:53 69° SSE 19:24:24 10° ENE
DMSP B5D2-2 4.4 19:14:53 10° NNE 19:19:51 42° ESE 19:24:49 10° S
CZ-2C R/B 3.1 19:15:20 10° S 19:20:05 77° WSW 19:25:01 10° NNW
Cosmos 540 Rocket 4.2 19:15:52 10° NNE 19:20:20 31° ENE 19:24:49 10° SE
Cosmos 1766 Rocket 4.0 19:17:56 10° NNE 19:22:07 41° E 19:26:20 10° SSE
H-2A R/B 2.6 19:19:07 10° S 19:22:57 69° WSW 19:26:52 10° NNW
Feng Yun 1-1 Rocket 4.4 19:22:54 10° SSE 19:28:15 51° ENE 19:33:28 10° N
Meteor 2-3 Rocket 3.8 19:22:47 10° N 19:28:20 80° W 19:33:55 10° S
Cosmos 1553 Rocket 4.1 19:26:22 10° SSE 19:32:11 48° E 19:38:01 10° NNE
ISS -2.1 19:29:26 10° SW 19:32:33 37° NW 19:35:40 10° NNE
CZ-2C R/B 3.0 19:28:50 10° WSW 19:32:43 34° NW 19:36:26 10° NNE
ARIANE 5 R/B 2.1 19:26:29 10° W 19:33:08 85° N 19:34:46 19° E
Ariane H10 2.0 19:32:48 10° W 19:35:31 46° S 19:36:50 22° ESE
Cosmos 921 Rocket 3.9 19:32:50 10° NNE 19:36:19 26° E 19:38:06 19° ESE
Cosmos 1655 Rocket 4.2 19:32:00 10° N 19:38:13 77° W 19:44:30 10° S
Cosmos 1354 Rocket 4.0 19:38:18 10° SSW 19:43:33 89° WNW 19:48:45 10° NNE
Cosmos 1603 3.9 19:39:11 10° N 19:44:33 48° ENE 19:48:40 17° SE
CZ-2C R/B 3.9 19:39:23 10° N 19:44:41 47° WNW 19:50:04 10° SSW
Cosmos 2278 Rocket 2.6 19:40:01 10° S 19:45:12 37° ESE 19:50:21 10° NE
Meteor 2-16 Rocket 4.4 19:39:17 10° N 19:45:24 89° W 19:51:31 10° S
Cosmos 1437 Rocket 2.6 19:42:40 10° S 19:46:28 90° W 19:50:18 10° N
Cosmos 1606 3.0 19:47:00 10° S 19:50:43 67° W 19:54:25 10° N
CZ-3 Stage 3 4.4 19:48:57 10° WSW 19:51:22 21° S 19:55:01 14° SSE
Cosmos 1570 Rocket 4.5 19:47:18 10° N 19:52:07 39° ENE 19:54:21 26° SE
Centaur AC-119 1.7 19:50:46 10° NW 19:52:52 65° NNE 19:53:58 36° E
ATLAS 5 CENTAUR R/B 3.8 19:49:10 10° NNW 19:54:02 69° ENE 20:14:43 10° SSE
ERS-2 2.0 19:53:31 10° NNE 19:57:08 88° E 20:00:46 10° SSW
FALCON 9 DEB 3.0 19:54:04 10° NNW 19:57:29 76° NE 19:58:18 48° SE
CSL-04 Rocket 4.5 19:58:56 28° E 19:59:29 28° ENE 20:03:57 10° NNE
Ariane H10 3.2 19:56:31 10° W 19:59:34 64° S 20:01:34 32° ESE
Cosmos 1408 Rocket 3.6 19:56:01 10° N 20:00:24 60° E 20:02:44 26° SSE
GENESIS II 4.3 19:59:37 10° NNW 20:03:26 70° WSW 20:05:08 31° S
ARIANE 5 DEB (SYLDA) 3.9 20:02:24 10° W 20:02:37 12° W 20:02:37 12° W
Meteosat 1 Rocket2 2.6 20:02:43 10° WSW 20:06:19 80° NNW 20:07:45 37° NE
CZ-4 R/B 1.7 20:04:35 14° S 20:08:11 67° WSW 20:12:14 10° NNW
Ariane 3 Deb 4.4 19:42:57 10° W 20:09:17 64° NNW 20:12:36 25° ENE
NOAA 15 4.5 20:06:47 15° SSE 20:11:09 90° NNW 20:16:23 10° NNW
Intercosmos 24 4.2 20:06:34 10° S 20:12:18 71° E 20:16:19 10° N
Cosmos 1943 3.2 20:10:07 10° NNW 20:15:46 81° WSW 20:19:12 25° S
Cosmos 1933 3.2 20:15:50 54° S 20:16:43 82° E 20:20:44 10° N
Cosmos 1862 3.3 20:15:31 10° N 20:19:33 81° W 20:20:17 58° S
GPS 2-15 Rocket1 3.7 20:18:08 10° SW 20:22:23 43° S 20:22:23 43° S
Ariane 42L Rocket 4.5 20:18:58 10° W 20:25:32 63° N 20:32:22 27° ENE
Cosmos 1743 Rocket 4.3 20:32:38 10° N 20:35:39 44° N 20:35:39 44° N
Cosmos 883 Rocket 4.3 20:35:05 44° S 20:37:13 77° E 20:43:29 10° N
Centaur AC-64 3.3 20:34:28 10° WNW 20:38:54 44° WNW 20:38:54 44° WNW
Centaur D AC-28 4.1 20:37:07 10° SW 20:44:02 24° S 20:44:02 24° S
CZ-3B R/B 3.6 20:28:08 10° WSW 20:45:18 65° SSE 20:46:56 57° ESE
ARGOS 4.4 20:41:31 15° SSW 20:45:23 37° WSW 20:50:16 10° NW
Okean-O 4.5 20:52:43 24° SW 20:53:50 26° WSW 20:57:32 10° NW
ARIANE 5 R/B 3.1 20:30:56 10° W 20:56:03 86° N 20:56:15 83° NE
